Regional Weather Roundup
Issued by NWS

Home | Current Version | Previous Version | Graphics & Text | Print | Product List | Glossary On
Versions: 1 2 3 4 5 6 7 8 9 10 11 12 13 14 15 16 17 18 19 20 21 22 23 24 25 26 27 28 29 30 31 32 33 34 35 36 37 38 39 40 41 42 43 44 45 46 47 48 49 50
000
ASUS45 KBOU 272007
RWRCO

WEATHER ROUNDUP FOR COLORADO
NATIONAL WEATHER SERVICE DENVER/BOULDER CO
200 PM MDT SUN JUL 27 2014

NOTE: "FAIR" INDICATES FEW OR NO CLOUDS BELOW 12000 FEET WITH NO
SIGNIFICANT WEATHER AND/OR OBSTRUCTIONS TO VISIBILITY.

COZ001>005-013-030-031-272100-
...NORTHWEST COLORADO...

CITY           SKY/WX    TMP DP  RH WIND       PRES   REMARKS
CRAIG          MOSUNNY   82  43  25 VRB5      30.36F
HAYDEN         MOSUNNY   81  34  18 W8        30.39F
MEEKER         PTSUNNY   79  42  26 SW7       30.39F
MOUNT WERNER   NOT AVBL
STEAMBOAT SPGS PTSUNNY   80  41  25 S6        30.40F
WALDEN         SUNNY     79  32  18 E7        30.48F
$$

COZ006>008-011-272100-
...WEST CENTRAL VALLEYS...

CITY           SKY/WX    TMP DP  RH WIND       PRES   REMARKS
GRAND JUNCTION SUNNY     92  46  20 W8G17     30.18F
MONTROSE       MOSUNNY   89  48  24 N9        30.26F
EAGLE          MOSUNNY   77  50  38 CALM      30.38F
RIFLE          MOSUNNY   85  46  25 CALM      30.27F
DELTA          MOSUNNY   95  48  20 SE5       30.21F
NUCLA          MOSUNNY   90  43  19 W16G22    30.29F
$$

COZ017>023-064>068-272100-
...SOUTHWEST COLORADO...

CITY           SKY/WX    TMP DP  RH WIND       PRES   REMARKS
DURANGO        MOSUNNY   88  41  19 N5        30.31F
CORTEZ         SUNNY     85  45  24 VRB5      30.28F
PAGOSA SPRINGS MOSUNNY   83  39  20 S10       30.41F
TELLURIDE      PTSUNNY   66  50  55 SE3       30.57S
WOLF CREEK PAS NOT AVBL
$$

COZ009-010-012-014-032>034-037-058>063-272100-
...CENTRAL COLORADO...

CITY           SKY/WX    TMP DP  RH WIND       PRES   REMARKS
ASPEN          MOSUNNY   82  42  24 NW7G21    30.42F
BUENA VISTA    PTSUNNY   77  43  29 S8        30.45S
COPPER MTN     CLOUDY    64  39  39 S6        30.81S
BERTHOUD PASS  CLOUDY    52  37  58 SE7       30.87S THUNDER
COTTONWOOD PAS PTSUNNY   70  34  26 SE9       30.62S
GUNNISON       PTSUNNY   79  46  31 SW3       30.44F
KREMMLING      PTSUNNY   82  36  18 NW7       30.44F
LEADVILLE      PTSUNNY   69  39  33 SW8       30.59F
MONARCH PASS   PTSUNNY   59  43  55 E9        30.90S
SALIDA         PTSUNNY  N/A N/A N/A E12G17    30.49F
SUNLIGHT       PTSUNNY   64  52  63 W5        30.73S
WILKERSON PASS NOT AVBL
$$

COZ069>075-272100-
...SAN LUIS VALLEY/SANGRE DE CRISTO MOUNTAINS...

CITY           SKY/WX    TMP DP  RH WIND       PRES   REMARKS
ALAMOSA        MOSUNNY   83  44  25 S7        30.41F
LA VETA PASS   PTSUNNY   63  50  63 E13       30.69R THUNDER
SAGUACHE       PTSUNNY   79  43  27 S5        30.45S
$$

COZ035-036-038>040-272100-
...NORTHERN COLORADO FRONT RANGE...

CITY           SKY/WX    TMP DP  RH WIND       PRES   REMARKS
DENVER INTL AP MOSUNNY   81  55  40 S10       30.35F
DMNS CITY PARK   N/A     81  57  43 SW2G8     30.34F
AURORA         PTSUNNY   76  58  51 NE2       30.38F
FRONT RANGE AP NOT AVBL
ERIE MUNI ARPT MOSUNNY   79  60  51 N10       30.34F
BOULDER MUN AP MOSUNNY   77  59  53 N6        30.35F
CENTENNIAL     MOSUNNY   77  56  48 CALM      30.39F
BROOMFIELD     PTSUNNY   81  57  44 NW7       30.38F
FORT COLLINS   PTSUNNY   79  59  50 NE7       30.34F
LONGMONT       PTSUNNY   83  61  46 N9        30.36S
$$

COZ041-046-047-076>085-087-088-272100-
...PIKES PEAK/PALMER DIVIDE AND SOUTHERN FOOTHILLS...

CITY           SKY/WX    TMP DP  RH WIND       PRES   REMARKS
COLO. SPRINGS  PTSUNNY   81  56  42 SE10      30.41S
A. F. ACADEMY  MOSUNNY   74  55  51 S7        30.43S
ELLICOTT       MOSUNNY   80  53  39 SE12G21   30.40S
FALCON         MOSUNNY   74  54  49 SE8       30.47R
FORT CARSON    MOSUNNY   82  57  41 SE8       30.38F
LIMON          SUNNY     82  48  30 S9G24     30.36F
MONUMENT HILL  MOSUNNY   77  54  44 SE8       30.45F
TRINIDAD       SUNNY     86  52  30 E10       30.34F
$$

COZ042>045-048>051-090-091-272100-
...NORTHEAST COLORADO...

CITY           SKY/WX    TMP DP  RH WIND       PRES   REMARKS
GREELEY ARPT   MOSUNNY   82  57  42 E12G18    30.32F
AKRON          SUNNY     82  47  29 SE12G24   30.34F
BURLINGTON     SUNNY     83  53  35 E13       30.31F
WRAY             N/A     88  44  21 E10       30.30S
STERLING       SUNNY     88  50  27 SE8       30.30S
HOLYOKE        SUNNY     84  46  26 E6        30.31F
FORT MORGAN    SUNNY     86  47  26 E13G22    30.32F
$$

COZ086-089-092>099-272100-
...SOUTHEAST COLORADO...

CITY           SKY/WX    TMP DP  RH WIND       PRES   REMARKS
PUEBLO         MOSUNNY   85  59  41 SE13G20   30.29F
LA JUNTA       SUNNY     86  62  44 E14G21    30.27F
LAMAR          PTSUNNY   85  64  49 E13       30.25F
SPRINGFIELD      N/A     83  62  49 SE12G20   30.27F
$$



USA.gov is the U.S. government's official web portal to all federal, state and local government web resources and services.